Flag for Mexico Weather past 2 weeks in Mexicali, Baja California, Mexico

Now
96 °F

Sunny.


Feels Like: 92 °F
Forecast: 78 / 101 °F
Wind: N/A

Location: Imperial County Airport

Current Time: Aug 20, 2014 at 1:58:58 PM

Latest Report: Aug 20, 2014 at 12:53 PM


Visibility: 10 mi

Pressure: 29.81 "Hg

Humidity: 16%

Dew point: 43 °F

Location of MexicaliLocation

Historic Weather in Mexicali — Graph

°F

Mexicali temperature yesterday

Maximum temperature yesterday: 107 °F (at 3:53 PM)
Minimum temperature yesterday: 82 °F (at 5:53 AM)
Average temperature yesterday: 92 °F

Past Weeks' High & Low Weather Summary

 TemperatureHumidityPressure
High111 °F (Aug 17, 3:53 PM)82% (Aug 19, 5:53 AM)29.90 "Hg (Aug 19, 5:53 AM)
Low70 °F (Aug 9, 6:53 AM)3% (Aug 6, 3:53 PM)29.61 "Hg (Aug 19, 5:53 PM)
Average92 °F36%29.79 "Hg
* Reported Aug 5 11:53 AM — Aug 20 11:53 AM, Mexicali, Weather by CustomWeather, © 2014

Note: Actual official high and low records may vary slightly from our data, if they occured in-between our weather recording intervals... More about our weather records

Advertising

Mexicali weather history for previous 24 hours

 ConditionsComfort  
Time TempWeatherWind HumidityBarometerVisibility
11:53 AM
Aug 20
95 °FSunny.6 mph17%29.83 "Hg10 mi
10:53 AM92 °FSunny.5 mph18%29.84 "Hg10 mi
9:53 AM90 °FSunny.3 mph18%29.83 "Hg10 mi
8:53 AM87 °FSunny.No wind21%29.81 "Hg10 mi
7:53 AM81 °FSunny.3 mph28%29.80 "Hg7 mi
6:53 AM77 °FClear.3 mph33%29.80 "Hg9 mi
5:53 AM78 °FClear.3 mph30%29.77 "Hg10 mi
4:53 AM79 °FClear.6 mph21%29.75 "Hg10 mi
3:53 AM83 °FClear.7 mph17%29.75 "Hg10 mi
2:53 AM84 °FClear.7 mph15%29.74 "Hg10 mi
1:53 AM86 °FClear.13 mph13%29.72 "Hg10 mi
12:53 AM84 °FClear.12 mph17%29.72 "Hg10 mi
11:53 PM
Aug 19
84 °FClear.8 mph19%29.72 "Hg10 mi
10:53 PM86 °FClear.12 mph19%29.71 "Hg10 mi
9:53 PM87 °FClear.17 mph18%29.69 "Hg10 mi
8:53 PM89 °FClear.15 mph16%29.68 "Hg10 mi
7:53 PM92 °FSunny.18 mph21%29.64 "Hg10 mi
6:53 PM96 °FSunny.18 mph23%29.61 "Hg10 mi
5:53 PM101 °FSunny.17 mph19%29.61 "Hg10 mi
4:53 PM105 °FSunny.15 mph14%29.62 "Hg10 mi
3:53 PM107 °FSunny.18 mph11%29.62 "Hg10 mi
2:53 PM106 °FSunny.N/A13%29.65 "Hg10 mi
1:53 PM103 °FSunny.5 mph16%29.68 "Hg10 mi
Weather by CustomWeather, © 2014

See weather overviewHow to use our weather pages